Weather Roundup
Issued by NWS

Home | Current Version | Previous Version | Graphics & Text | Print | Product List | Glossary Off
Versions: 1 2 3 4 5 6 7 8 9 10 11 12 13 14 15 16 17 18 19 20 21 22 23 24 25 26 27 28 29 30 31 32 33 34 35 36 37 38 39 40 41 42 43 44 45 46 47 48 49 50

000
NZUS93 KARX 222159
HRRWXR

CURRENT HOURLY OBSERVATIONS ACROSS
MUCH OF THE UPPER MISSISSIPPI VALLEY
NATIONAL WEATHER SERVICE LA CROSSE WI
500 PM CDT SAT APR 22 2017


...SOUTHEAST MINNESOTA...


CITY           SKY/WX    TMP DP  RH WIND       PRES   REMARKS
ROCHESTER      SUNNY     65  35  33 NW8       30.16F
ROCHESTER/MAYO FAIR      65  32  29 NW3       30.16F
WINONA         SUNNY     66  32  28 NE3       30.16F
AUSTIN         SUNNY     64  30  27 NW6       30.16F
ALBERT LEA     SUNNY     64  27  24 NW5       30.16F
DODGE CENTER   SUNNY     64  34  32 W6        30.16F
PRESTON        SUNNY     63  34  34 W3        30.17F
OWATONNA       SUNNY     66  30  26 W8        30.16F
FARIBAULT      SUNNY     66  34  30 W10       30.16F
$$

...ELSEWHERE IN MINNESOTA...


CITY           SKY/WX    TMP DP  RH WIND       PRES   REMARKS
MINNEAPOLIS    MOSUNNY   69  34  27 NW13      30.13F
INTNL FALLS    CLOUDY    44  36  73 NW16      30.12S
DULUTH         MOSUNNY   67  36  31 W23       30.04F
RED WING       SUNNY     70  28  21 W9        30.13F
REDWOOD FALLS  SUNNY     69  33  26 NW7       30.14F
MANKATO        SUNNY     67  35  30 W8        30.16F
WORTHINGTON    SUNNY     65  34  31 NW9       30.19F
FAIRMONT       SUNNY     66  35  31 N9        30.17F
$$

...SOUTHWEST WISCONSIN...


CITY           SKY/WX    TMP DP  RH WIND       PRES   REMARKS
LA CROSSE      SUNNY     68  21  16 N8        30.14F
PRAIRIE DU CHI SUNNY     66  20  17 W8        30.16F
BOSCOBEL       SUNNY     67  22  18 CALM      30.15F
LONE ROCK      NOT AVBL
PLATTEVILLE    SUNNY     63  30  28 N3        30.17F
FORT MC COY    SUNNY     65  28  24 W10       30.15F
MAUSTON-NEW LI CLEAR     65  31  28 W6        30.14F
VIROQUA        FAIR      64  26  23 CALM      30.16F
WIS DELLS      SUNNY     63  24  22 CALM      30.15F
$$

...ELSEWHERE IN WISCONSIN...


CITY           SKY/WX    TMP DP  RH WIND       PRES   REMARKS
MILWAUKEE      MOSUNNY   57  22  25 E7        30.17F
MADISON        MOSUNNY   62  27  26 CALM      30.15F
GREEN BAY      SUNNY     63  33  32 SW8       30.13F
EAU CLAIRE     NOT AVBL
BLACK RVR FLS  FAIR      67  17  14 SW8       30.15F
MEDFORD        SUNNY     61  32  33 W7        30.13F
WAUSAU         SUNNY     62  31  31 W13       30.11F
WIS RAPIDS     CLOUDY    65  26  23 VRB6      30.14F
MARSHFIELD     SUNNY     63  28  26 SW12G20   30.12F
RICE LAKE      SUNNY     67  32  27 SW10G16   30.14F
$$

...NORTHEAST IOWA...


CITY           SKY/WX    TMP DP  RH WIND       PRES   REMARKS
WATERLOO       SUNNY     66  28  24 N7        30.16F
DUBUQUE        SUNNY     62  29  28 VRB7      30.17F
DECORAH        SUNNY     63  25  23 NW8       30.16S
MASON CITY     SUNNY     66  29  24 VRB5      30.18F
CHARLES CITY   SUNNY     64  25  22 N6        30.17F
OELWEIN        SUNNY     63  28  27 VRB6G14   30.17F
$$

...ELSEWHERE IN IOWA...


CITY           SKY/WX    TMP DP  RH WIND       PRES   REMARKS
DES MOINES     MOSUNNY   68  25  19 NE7       30.16F
IOWA CITY      SUNNY     66  31  27 N10       30.16F
FORT DODGE     SUNNY     66  34  30 N8        30.18F
MARSHALLTOWN   SUNNY     65  29  25 N6        30.16F
CEDAR RAPIDS   SUNNY     65  28  24 NE13      30.15F
$$

...NORTHERN ILLINOIS...


CITY           SKY/WX    TMP DP  RH WIND       PRES   REMARKS
CHICAGO-OHARE  MOSUNNY   59  19  21 NE15      30.16S
CHICAGO-MIDWAY MOSUNNY   58  26  29 NE12      30.16R
MOLINE         SUNNY     64  32  30 NE12      30.13F
ROCKFORD       MOSUNNY   64  28  25 E9        30.16F
PEORIA         SUNNY     64  29  26 E17G24    30.10S
$$

NOTE: "FAIR" INDICATES FEW OR NO CLOUDS BELOW 12,000 FEET WITH NO
SIGNIFICANT WEATHER AND/OR OBSTRUCTIONS TO VISIBILITY. WIND
SPEEDS ARE IN MILES-PER-HOUR.




USA.gov is the U.S. government's official web portal to all federal, state and local government web resources and services.